Track ONEWEB-0139 now! 10-day predictions ONEWEB-0139 is classified as:
1 47285U 20100AD 22184.78740301 .00000456 00000-0 12334-2 0 9996 2 47285 87.8884 277.7306 0002261 108.4172 251.7203 13.12441447 75268